DW2613 Weather Reports


Display with metric or nautical units.
time (UTC)temp
F
wind
direction
speed
MPH
gust
MPH
rain 1hr
in
rain 24hr
in
rain mn
in
humidity
%
barometer
mb
20260507060402 65 329 1.0 6.0 0.06 0.11 0.06 94 1008.9
20260507060008 64 315 2.0 4.0 0.06 0.11 0.06 93 1009.5
20260507055357 65 291 0.0 0.0 0.04 0.09 0.06 92 1008.9
20260507054512 65 291 0.0 2.0 0.05 0.10 0.05 91 1009.3
20260507054341 65 291 0.0 0.0 0.10 0.09 0.05 91 1008.9
20260507053323 66 291 0.0 0.0 0.30 0.05 0.02 90 1008.9
20260507053021 65 291 0.0 4.0 0.01 0.06 0.01 89 1009.3
20260507052308 65 292 0.0 0.0 0.00 0.04 0.00 89 1008.9
20260507051531 65 292 0.0 0.0 0.00 0.05 0.00 88 1009.3
20260507051300 65 292 0.0 0.0 0.00 0.04 0.00 89 1009.0
20260507050250 65 292 0.0 0.0 0.00 0.04 0.00 89 1009.0
20260507050011 65 292 0.0 0.0 0.00 0.05 0.00 88 1009.5
20260507045301 65 292 0.0 0.0 0.00 0.04 0.00 88 1009.0
20260507044512 65 292 0.0 0.0 0.00 0.05 0.00 88 1009.4
20260507044227 66 292 0.0 0.0 0.00 0.04 0.00 88 1009.0
20260507043016 65 292 0.0 2.0 0.00 0.05 0.00 87 1009.4
20260507042135 66 292 0.0 0.0 0.00 0.04 0.00 89 1009.1
20260507041518 65 292 0.0 4.0 0.00 0.05 0.00 89 1009.6
20260507040027 63 275 2.0 3.0 0.00 0.05 0.00 90 1009.9
20260507035952 64 275 0.0 2.0 0.00 0.04 0.05 90 1009.4
20260507034933 64 275 0.0 3.0 0.00 0.04 0.05 90 1009.2
20260507034519 63 273 0.0 3.0 0.00 0.05 0.05 89 1009.5
20260507033924 64 274 0.0 2.0 0.00 0.04 0.05 91 1009.0
20260507033025 63 274 0.0 4.0 0.00 0.05 0.05 90 1009.0
20260507031739 64 274 0.0 0.0 0.00 0.04 0.05 89 1008.5
20260507031517 63 274 0.0 1.0 0.00 0.05 0.05 89 1008.8
20260507030707 64 274 0.0 1.0 0.00 0.04 0.05 89 1008.6
20260507030026 64 274 0.0 0.0 0.00 0.05 0.05 86 1009.1
20260507025633 65 274 0.0 0.0 0.00 0.04 0.05 87 1008.7
20260507024658 65 274 0.0 0.0 0.00 0.04 0.05 87 1008.8
20260507024524 65 274 0.0 4.0 0.00 0.05 0.05 87 1009.2
20260507023653 65 274 0.0 4.0 0.00 0.04 0.05 87 1009.0
20260507023020 65 274 1.0 6.0 0.00 0.05 0.05 87 1009.6
20260507022636 65 286 1.0 3.0 0.00 0.04 0.05 88 1009.3
20260507021514 64 274 2.0 4.0 0.00 0.05 0.05 87 1009.7
20260507020541 65 257 0.0 0.0 0.00 0.04 0.05 87 1009.0
20260507020022 65 257 1.0 3.0 0.00 0.05 0.05 86 1009.3
20260507015535 65 257 0.0 1.0 0.00 0.04 0.05 86 1008.9
20260507014537 66 257 1.0 6.0 0.00 0.04 0.05 86 1009.2
20260507014521 65 257 0.0 4.0 0.00 0.05 0.05 85 1009.6
20260507013531 66 259 1.0 6.0 0.00 0.04 0.05 86 1009.3
20260507013024 66 255 2.0 7.0 0.00 0.05 0.05 85 1009.5
20260507012525 66 271 2.0 5.0 0.00 0.04 0.05 86 1009.1
20260507011512 66 272 3.0 6.0 0.00 0.05 0.05 84 1009.6
20260507011454 66 275 1.0 5.0 0.00 0.04 0.05 85 1009.2
20260507010024 66 257 1.0 7.0 0.00 0.05 0.05 84 1009.4
20260507005311 67 237 2.0 6.0 0.00 0.04 0.05 84 1009.1
20260507004532 66 262 2.0 9.0 0.00 0.05 0.05 84 1009.4
20260507004249 67 254 2.0 6.0 0.00 0.04 0.05 85 1008.9
20260507003026 66 257 2.0 8.0 0.00 0.05 0.05 85 1009.5
20260507002134 67 236 2.0 6.0 0.00 0.04 0.05 85 1008.9
20260507001525 66 251 1.0 7.0 0.00 0.05 0.05 84 1009.1
20260507001121 67 246 2.0 6.0 0.00 0.04 0.05 85 1008.7
20260507000109 67 279 2.0 6.0 0.00 0.04 0.05 85 1008.7
20260507000017 66 279 2.0 9.0 0.00 0.05 0.05 84 1009.0
20260506235133 67 243 1.0 5.0 0.00 0.04 0.05 84 1008.7
20260506234518 67 257 1.0 7.0 0.00 0.05 0.05 83 1009.0
20260506234106 67 273 2.0 5.0 0.00 0.04 0.05 83 1008.6
20260506233024 67 265 1.0 4.0 0.00 0.05 0.05 82 1008.9
20260506231953 68 244 2.0 7.0 0.00 0.04 0.05 82 1008.4
20260506231524 67 285 2.0 9.0 0.00 0.05 0.05 81 1008.9
20260506230948 68 257 3.0 10.0 0.00 0.04 0.05 82 1008.4
20260506230027 68 275 6.0 12.0 0.00 0.05 0.05 81 1008.8
20260506225951 68 268 3.0 10.0 0.00 0.04 0.05 81 1008.4
20260506224946 69 287 3.0 9.0 0.00 0.04 0.05 80 1008.4
20260506224516 69 267 4.0 11.0 0.00 0.05 0.05 79 1008.8
20260506224010 70 246 3.0 10.0 0.00 0.04 0.05 79 1008.5
20260506223028 70 229 3.0 10.0 0.00 0.04 0.05 80 1008.5
20260506223004 69 280 3.0 12.0 0.00 0.05 0.05 79 1008.9
20260506221508 69 265 2.0 10.0 0.00 0.05 0.05 79 1008.9
20260506220022 69 265 4.0 10.0 0.00 0.05 0.05 79 1009.1
20260506215717 69 234 3.0 8.0 0.00 0.04 0.05 80 1008.8
20260506214657 69 244 3.0 8.0 0.00 0.04 0.05 80 1008.9
20260506214511 69 267 4.0 10.0 0.00 0.05 0.05 80 1009.1
20260506213631 69 285 3.0 10.0 0.00 0.04 0.05 81 1008.8
20260506213016 68 246 5.0 12.0 0.00 0.05 0.05 80 1009.1
20260506212619 68 274 4.0 10.0 0.00 0.04 0.05 81 1008.8
20260506211546 69 267 4.0 8.0 0.00 0.04 0.05 81 1008.9
20260506211521 69 277 5.0 10.0 0.00 0.05 0.05 81 1009.1
20260506210011 68 286 3.0 8.0 0.00 0.05 0.05 81 1009.1
20260506205448 68 269 2.0 6.0 0.00 0.04 0.05 82 1008.7
20260506204510 67 269 3.0 8.0 0.00 0.05 0.05 82 1009.0
20260506203325 67 255 2.0 7.0 0.00 0.04 0.05 84 1008.9
20260506203020 66 280 2.0 8.0 0.00 0.05 0.05 84 1009.2
20260506202331 66 246 1.0 5.0 0.00 0.04 0.05 85 1008.7
20260506201520 66 241 2.0 7.0 0.00 0.05 0.05 85 1009.1
20260506200212 66 245 3.0 6.0 0.00 0.04 0.05 85 1009.2
20260506200023 66 272 3.0 9.0 0.00 0.05 0.05 84 1009.5
20260506195146 67 267 4.0 11.0 0.00 0.04 0.05 84 1009.4
20260506194507 66 254 6.0 13.0 0.00 0.05 0.05 83 1009.5
20260506194141 67 249 4.0 13.0 0.00 0.04 0.05 84 1009.3
20260506193116 67 243 5.0 13.0 0.00 0.04 0.05 83 1009.3
20260506193014 67 234 6.0 15.0 0.00 0.05 0.05 83 1009.5
20260506192113 67 281 3.0 8.0 0.00 0.04 0.05 84 1009.4
20260506191516 67 234 2.0 10.0 0.00 0.05 0.05 84 1009.6
20260506191103 67 275 3.0 9.0 0.00 0.04 0.05 83 1009.3
20260506190056 68 281 3.0 10.0 0.00 0.04 0.05 84 1009.6
20260506190026 67 217 5.0 12.0 0.00 0.05 0.05 84 1010.0
20260506185051 68 275 3.0 13.0 0.00 0.04 0.05 84 1009.8
20260506184522 67 209 3.0 11.0 0.00 0.05 0.05 84 1010.2
20260506184047 67 256 4.0 13.0 0.00 0.04 0.05 84 1009.9
20260506183016 67 235 5.0 12.0 0.00 0.04 0.05 83 1010.0
20260506183010 67 213 6.0 14.0 0.00 0.05 0.05 83 1010.5
20260506182011 67 214 4.0 12.0 0.00 0.04 0.05 84 1010.2
20260506181517 66 218 3.0 14.0 0.00 0.05 0.05 84 1010.7
20260506181007 67 289 4.0 12.0 0.00 0.04 0.05 84 1010.3
20260506180020 66 256 3.0 14.0 0.00 0.05 0.05 84 1010.9
20260506180013 67 253 4.0 12.0 0.00 0.04 0.05 85 1010.5
20260506174956 66 236 4.0 12.0 0.00 0.04 0.05 86 1010.3
20260506174522 66 183 5.0 12.0 0.00 0.05 0.05 85 1010.7
20260506173944 66 251 4.0 12.0 0.00 0.04 0.05 86 1010.5
20260506173026 65 273 5.0 11.0 0.00 0.05 0.05 85 1011.0
20260506171814 66 94 3.0 11.0 0.00 0.04 0.05 87 1010.4
20260506171516 65 239 4.0 8.0 0.03 0.05 0.05 87 1010.7
20260506170824 65 199 2.0 8.0 0.00 0.04 0.05 89 1010.5
20260506170018 64 217 3.0 9.0 0.03 0.05 0.05 88 1011.0
20260506165811 64 229 2.0 9.0 0.00 0.04 0.05 89 1010.7
20260506164522 63 153 3.0 11.0 0.03 0.05 0.05 88 1011.4
20260506163637 64 211 3.0 9.0 0.06 0.04 0.05 89 1011.0
20260506163026 63 268 6.0 10.0 0.04 0.05 0.05 88 1011.4
20260506162619 64 266 3.0 9.0 0.10 0.04 0.05 88 1011.2
20260506161554 64 200 3.0 11.0 0.00 0.02 0.03 87 1011.6
20260506161533 64 224 4.0 13.0 0.02 0.02 0.02 86 1012.1
20260506160618 64 258 4.0 11.0 0.00 0.02 0.02 86 1011.6
20260506160016 64 234 5.0 13.0 0.02 0.02 0.02 87 1012.1
20260506155630 64 231 3.0 11.0 0.04 0.02 0.02 88 1011.6
20260506154602 64 227 3.0 10.0 0.04 0.02 0.02 89 1011.7
20260506154520 64 252 4.0 12.0 0.02 0.02 0.02 89 1012.2
20260506153531 65 226 2.0 10.0 0.00 0.01 0.01 89 1012.0
20260506153021 64 64 2.0 8.0 0.01 0.01 0.01 87 1012.5
20260506152556 66 269 2.0 10.0 0.00 0.00 0.00 87 1012.1
20260506151533 66 201 2.0 9.0 0.00 0.00 0.00 87 1012.1
20260506151524 65 165 2.0 10.0 0.00 0.00 0.00 87 1012.5
20260506150027 64 269 2.0 10.0 0.00 0.00 0.00 87 1012.3
20260506145405 65 248 3.0 9.0 0.00 0.00 0.00 87 1011.8
20260506144520 65 250 3.0 11.0 0.00 0.00 0.00 84 1012.1
20260506144415 65 84 3.0 10.0 0.00 0.00 0.00 84 1011.6
20260506143026 65 234 3.0 21.0 0.00 0.00 0.00 82 1012.2
20260506142308 66 198 3.0 15.0 0.00 0.00 0.00 81 1011.6
20260506141533 66 279 5.0 17.0 0.00 0.00 0.00 80 1012.2
20260506141244 66 239 5.0 15.0 0.00 0.00 0.00 81 1011.6
20260506140238 67 303 2.0 9.0 0.00 0.00 0.00 80 1011.7
20260506140025 66 208 2.0 10.0 0.00 0.00 0.00 80 1012.1
20260506135207 67 227 2.0 10.0 0.00 0.00 0.00 80 1011.6
20260506134525 66 253 3.0 10.0 0.00 0.00 0.00 79 1012.0
20260506134203 67 227 3.0 10.0 0.00 0.00 0.00 80 1011.6
20260506133008 66 247 3.0 12.0 0.00 0.00 0.00 79 1012.0
20260506131507 66 205 4.0 13.0 0.00 0.00 0.00 79 1012.4
20260506130851 67 232 2.0 8.0 0.00 0.00 0.00 79 1011.9
20260506130006 67 240 2.0 10.0 0.00 0.00 0.00 78 1012.2
20260506125903 67 223 2.0 8.0 0.00 0.00 0.00 78 1011.7
20260506124915 67 170 3.0 13.0 0.00 0.00 0.00 79 1011.8
20260506124506 67 269 3.0 11.0 0.00 0.00 0.00 78 1012.3
20260506123008 66 256 5.0 13.0 0.00 0.00 0.00 79 1012.5
20260506122838 67 202 4.0 11.0 0.00 0.00 0.00 80 1012.0
20260506121902 66 260 4.0 15.0 0.00 0.00 0.00 79 1012.1
20260506121508 66 238 4.0 17.0 0.00 0.00 0.00 80 1012.7
20260506120911 66 209 4.0 15.0 0.00 0.00 0.00 80 1012.1
20260506120006 65 233 5.0 14.0 0.00 0.00 0.00 81 1012.4
20260506115926 66 211 4.0 13.0 0.00 0.00 0.00 82 1012.0
20260506114506 65 232 3.0 13.0 0.00 0.00 0.00 81 1012.3
20260506113803 65 273 3.0 11.0 0.00 0.00 0.00 82 1011.9
20260506113008 64 100 5.0 12.0 0.00 0.00 0.00 83 1012.2
20260506111511 63 224 3.0 10.0 0.00 0.00 0.00 84 1012.0
20260506110014 63 182 4.0 11.0 0.00 0.00 0.00 83 1012.0
20260506105350 64 229 2.0 9.0 0.00 0.00 0.00 83 1011.7
20260506104508 63 238 3.0 10.0 0.00 0.00 0.00 84 1012.0
20260506104350 63 195 3.0 9.0 0.00 0.00 0.00 84 1011.6
20260506103340 63 188 1.0 9.0 0.00 0.00 0.00 85 1011.7
20260506103011 62 198 2.0 9.0 0.00 0.00 0.00 85 1012.1
20260506102349 63 157 1.0 8.0 0.00 0.00 0.00 85 1011.7
20260506101512 62 185 2.0 9.0 0.00 0.00 0.00 84 1012.2
20260506101349 63 254 2.0 10.0 0.00 0.00 0.00 85 1011.8
20260506100317 63 232 2.0 10.0 0.00 0.00 0.00 84 1011.7
20260506100013 62 186 4.0 12.0 0.00 0.00 0.00 84 1011.9
20260506094514 62 279 2.0 11.0 0.00 0.00 0.00 83 1011.9
20260506094211 63 291 2.0 9.0 0.00 0.00 0.00 83 1011.6
20260506093146 63 196 2.0 10.0 0.00 0.00 0.00 83 1011.5
20260506093008 62 262 3.0 13.0 0.00 0.00 0.00 82 1011.9
20260506092122 63 180 2.0 11.0 0.00 0.00 0.00 82 1011.5
20260506091518 62 234 2.0 12.0 0.00 0.00 0.00 82 1011.9
20260506090021 63 188 3.0 11.0 0.00 0.00 0.00 82 1012.0
20260506085955 63 188 2.0 10.0 0.00 0.00 0.00 82 1011.7
20260506084938 63 16 2.0 10.0 0.00 0.00 0.00 82 1011.8
20260506084532 63 215 5.0 11.0 0.00 0.00 0.00 82 1012.1
20260506083924 63 240 2.0 7.0 0.00 0.00 0.00 83 1011.7
20260506083017 63 254 2.0 10.0 0.00 0.00 0.00 82 1012.0
20260506082932 63 119 2.0 10.0 0.00 0.00 0.00 83 1011.7
20260506081918 63 225 2.0 10.0 0.00 0.00 0.00 83 1011.8
20260506081517 63 190 3.0 12.0 0.00 0.00 0.00 82 1012.2
20260506080929 63 232 2.0 12.0 0.00 0.00 0.00 83 1012.0
20260506073020 63 175 3.0 11.0 0.00 0.00 0.00 82 1012.4
20260506072953 64 173 2.0 9.0 0.00 0.00 0.00 83 1012.0
20260506071520 63 272 3.0 15.0 0.00 0.00 0.00 82 1012.5
20260506070807 64 226 2.0 13.0 0.00 0.00 0.00 82 1012.1
20260506061507 64 218 2.0 15.0 0.00 0.00 0.00 81 1012.7